Location: Niedergestelen
(46.3129°N, 7.7822°E)
Time: 06:40:03
(UTC+00:00)

Cosmos 1151 Rocket - Pass Details

Date: 01 December 2020
Orbit: 593 x 615 km, 82.5° (Epoch: 18 January)

Event Time Altitude Azimuth Distance (km) Brightness Sun altitude
Rises 17:05:52 0° 193° (SSW) 2,832 6.9 -13.6°
Reaches altitude 10° 17:08:04 10° 195° (SSW) 1,931 6.0 -14.0°
Maximum altitude 17:12:19 72° 279° (W) 632 3.2 -14.7°
Drops below altitude 10° 17:16:36 10° 5° (N) 1,939 5.4 -15.4°
Enters shadow 17:18:49 - 8° (N) 2,840 6.2 -15.8°
